WESTFORD NEEDLES, 2365

Orbit data source: Space-Track

WESTFORD NEEDLES, 2365 is space debris in LEO originally from a launch on Thu, 09 May 1963 UTC launched from the Air Force Western Test Range (AFWTR). Debris objects in space refer to the collection of defunct objects orbiting the Earth. Examples of debris include non-operational satellites, rocket bodies, and fragments generated from explosions, collisions, or faulty payload assembly.

Loading next visibility...
Identifier
2365, 1963-014Q
Orbit
LEO
Country
Flag of USUS
Related business
Manufacturer
Unknown
Mission
Spacecraft
Bus & Motor
Unknown
Mass
Unknown
Launch date (UTC)
1963-05-09 (63 years ago)
Launch vehicle
Unknown
Launch site
Air Force Western Test Range (AFWTR)
Object type
Payload
Rocket body
Debris
Shape & HBR
Unknown shape, 0.3 m
Radar Cross Section
Medium (>0.1 m² and <1 m²)

Expand to show TLE details & history
Last TLE update: 1 day ago

TLE from 1 day ago
0 WESTFORD NEEDLES
1 02365U 63014Q   26173.77533238  .00001370  00000-0  61853+0 0  9990
2 02365  87.3097  97.7333 0147807 207.4086 151.8914  8.67737203997500
Epoch: 2026-06-22T18:36Z
TLE epoch observation values (Epoch: 2026-06-22T18:36:28.717Z)
Latitude
0.00007°
Longitude
-92.34276°
Altitude
3,758.254 km
Speed
6.23 km/s
True Right ascension
06h 30m 55s
True Declination
0° 00' 00"
Sunlit
Object was in daylight at epoch
Visualization orbit readout
Latitude
Unknown
Longitude
Unknown
Altitude
Unknown
Speed
Unknown
Apparent Right ascension
Unknown
Apparent Declination
Unknown
Sunlit
N/A
Visualization observer readout
Local Sidereal Time
16:52:28
Azimuth
Unknown
Elevation
Unknown
Doppler factor
Unknown
Orbital elements
Apogee altitude
3,770.799 km
Perigee altitude
3,475.152 km
Semi-major axis
10,001.113 km
Eccentricity
0.01478
Inclination
87.3097°
RAAN
97.7333°
Arg. of periapsis
207.4086°
True anomaly
152.67657°
Mean anomaly
151.8914°
Eccentric anomaly
152.28525°
Mean motion
2.17005 °/min
Orbital period
165.89 mins
BSTAR
0.61853

Documentation

Showing up to 5 results
|